Location: Zagreb
(45.8000°N, 16.0000°E)
Time: 01:13:57
(UTC+02:00)

Transit 2A Rocket - Pass Details

Date: 23 January 2022
Orbit: 592 x 909 km, 66.7° (Epoch: 26 May)

Event Time Altitude Azimuth Distance (km) Brightness Sun altitude
Rises 20:43:15 0° 248° (WSW) 3,505 9.0 -40.5°
Reaches altitude 10° 20:46:04 10° 259° (W) 2,585 8.3 -41.0°
Enters shadow 20:49:21 25° 288° (WNW) 1,765 7.3 -41.5°
Maximum altitude 20:51:19 30° 319° (NW) 1,591 - -41.9°
Drops below altitude 10° 20:56:33 10° 19° (NNE) 2,581 - -42.7°
Sets 20:59:23 0° 30° (NNE) 3,498 - -43.2°
